Weather History for Fort Myers, FL

Change the Weather History Date:

Saturday, December 15, 2012

  Actual Average Record
Temperature  
Mean Temperature 71 °F 67 °F  
Max Temperature 81 °F 77 °F 87 °F (1940)
Min Temperature 61 °F 57 °F 33 °F (1944)
Degree Days  
Heating Degree Days 0 2  
Month to date heating degree days 0 25  
Since 1 July heating degree days 15 43  
Cooling Degree Days 6 4  
Month to date cooling degree days 107 67  
Year to date cooling degree days 4320 3930  
Growing Degree Days 20 (Base 50)    
Moisture  
Dew Point 60 °F    
Average Humidity 75    
Maximum Humidity 100    
Minimum Humidity 45    
Precipitation  
Precipitation 0.00 in 0.05 in 0.69 in (1947)
Month to date precipitation 1.87 0.73  
Year to date precipitation 49.30 54.95  
Sea Level Pressure  
Sea Level Pressure 30.07 in    
Wind  
Wind Speed 6 mph (ENE)    
Max Wind Speed 13 mph    
Max Gust Speed 16 mph    
Visibility 10 miles    
Events      
T = Trace of Precipitation, MM = Missing Value Source: NWS Daily Summary

Daily Weather History Graph

Daily Weather History Graph

Search for Another Location

Airport:

Trip Planner

Search our weather history database for the weather conditions in past years. The results will help you decide how hot, cold, wet, or windy it might be!

Date:

Astronomy

Dec. 15, 2012 Rise Set
Actual Time 7:08 AM EST 5:37 PM EST
Civil Twilight 6:43 AM EST 6:02 PM EST
Nautical Twilight 6:14 AM EST 6:31 PM EST
Astronomical Twilight 5:45 AM EST 7:00 PM EST
Moon 9:09 AM EST (12/15) 8:28 PM EST (12/15)
Length of Visible Light 11h 19m
Length of Day
10h 28m
Waxing Crescent, 8% of the Moon is Illuminated
Dec 15
Waxing Crescent
Dec 20
First Quarter
Dec 28
Full
Jan 4
Last Quarter
Jan 11
New

Hourly Weather History & Observations

Time (EST) Temp. Heat Index Dew Point Humidity Pressure Visibility Wind Dir Wind Speed Gust Speed Precip Events Conditions
12:53 AM 62.1 °F - 59.0 °F 90% 30.09 in 10.0 mi NE 6.9 mph - N/A   Clear
1:53 AM 62.1 °F - 59.0 °F 90% 30.08 in 10.0 mi ENE 4.6 mph - N/A   Clear
2:53 AM 61.0 °F - 59.0 °F 93% 30.07 in 10.0 mi NE 4.6 mph - N/A   Clear
3:53 AM 61.0 °F - 59.0 °F 93% 30.08 in 9.0 mi NE 4.6 mph - N/A   Clear
4:53 AM 62.1 °F - 60.1 °F 93% 30.07 in 9.0 mi ENE 4.6 mph - N/A   Mostly Cloudy
5:53 AM 61.0 °F - 60.1 °F 97% 30.08 in 9.0 mi NE 5.8 mph - N/A   Mostly Cloudy
6:53 AM 61.0 °F - 60.1 °F 97% 30.10 in 10.0 mi ENE 3.5 mph - N/A   Partly Cloudy
7:53 AM 62.1 °F - 60.1 °F 93% 30.10 in 9.0 mi ENE 4.6 mph - N/A   Clear
9:53 AM 73.0 °F - 63.0 °F 71% 30.13 in 10.0 mi East 6.9 mph - N/A   Clear
10:53 AM 75.9 °F - 64.0 °F 67% 30.12 in 10.0 mi ENE 9.2 mph - N/A   Mostly Cloudy
11:53 AM 77.0 °F - 63.0 °F 62% 30.10 in 10.0 mi East 11.5 mph 16.1 mph N/A   Mostly Cloudy
12:53 PM 80.1 °F 80.9 °F 60.1 °F 50% 30.07 in 10.0 mi East 8.1 mph 16.1 mph N/A   Mostly Cloudy
1:53 PM 78.1 °F - 61.0 °F 56% 30.05 in 10.0 mi ENE 9.2 mph - N/A   Overcast
2:53 PM 79.0 °F - 60.1 °F 52% 30.04 in 10.0 mi ENE 9.2 mph - N/A   Overcast
3:53 PM 80.1 °F 80.4 °F 57.0 °F 45% 30.03 in 10.0 mi ENE 8.1 mph - N/A   Partly Cloudy
4:53 PM 79.0 °F - 57.0 °F 47% 30.04 in 10.0 mi East 5.8 mph - N/A   Overcast
5:53 PM 73.9 °F - 57.9 °F 57% 30.05 in 10.0 mi ENE 4.6 mph - N/A   Scattered Clouds
6:53 PM 72.0 °F - 60.1 °F 66% 30.06 in 10.0 mi East 4.6 mph - N/A   Clear
7:53 PM 70.0 °F - 61.0 °F 73% 30.07 in 10.0 mi East 4.6 mph - N/A   Clear
8:53 PM 69.1 °F - 62.1 °F 78% 30.08 in 10.0 mi East 4.6 mph - N/A   Partly Cloudy
9:53 PM 68.0 °F - 62.1 °F 81% 30.08 in 10.0 mi East 4.6 mph - N/A   Clear
10:53 PM 66.0 °F - 62.1 °F 87% 30.06 in 10.0 mi ESE 5.8 mph - N/A   Clear
11:53 PM 66.0 °F - 61.0 °F 84% 30.05 in 10.0 mi ESE 3.5 mph - N/A   Clear